Flag Weather past 2 weeks in Resolute Bay, Nunavut Territory, Canada

Now
-20 °F

Snow flurries. Clear.


Feels Like: -46 °F
Forecast: -16 / -10 °F
Wind: 16 mph from North

Location: Resolute

Current Time: Nov 24, 2014 at 2:28:27 AM

Latest Report: Nov 24, 2014 at 2:00 AM


Visibility: 15 mi

Pressure: 29.66 "Hg

Humidity: 75%

Dew point: -26 °F

Location of Resolute BayLocation

Historic Weather in Resolute Bay — Graph

°F

Resolute Bay temperature yesterday

Maximum temperature yesterday: -8 °F (at 12:00 AM)
Minimum temperature yesterday: -18 °F (at 7:00 PM)
Average temperature yesterday: -13 °F

Past Weeks' High & Low Weather Summary

 TemperatureHumidityPressure
High7 °F (Nov 16, 11:00 PM)85% (Nov 10, 2:00 PM)30.56 "Hg (Nov 10, 2:00 PM)
Low-20 °F (Nov 21, 1:00 PM)56% (Nov 16, 11:00 PM)29.30 "Hg (Nov 21, 6:00 AM)
Average-8 °F77%29.97 "Hg
* Reported Nov 9 1:00 AM — Nov 24 1:00 AM, Resolute Bay, Weather by CustomWeather, © 2014

Note: Actual official high and low records may vary slightly from our data, if they occured in-between our weather recording intervals... More about our weather records

Advertising

Resolute Bay weather history for previous 24 hours

 ConditionsComfort  
Time TempWeatherWind HumidityBarometerVisibility
1:00 AM
Nov 24
-20 °FSnow flurries. Clear.21 mph75%29.66 "Hg15 mi
12:00 AM-20 °FSunny.16 mph68%29.66 "Hg15 mi
11:00 PM
Nov 23
-17 °FClear.22 mph69%29.65 "Hg15 mi
10:00 PM-17 °FPassing clouds.17 mph69%29.66 "Hg15 mi
9:00 PM-17 °FPassing clouds.14 mph69%29.67 "Hg15 mi
8:00 PM-17 °FPassing clouds.14 mph69%29.68 "Hg15 mi
7:00 PM-18 °FPassing clouds.20 mph75%29.69 "Hg15 mi
6:00 PM-15 °FPartly sunny.18 mph69%29.70 "Hg15 mi
5:00 PM-13 °FPartly sunny.13 mph76%29.70 "Hg15 mi
4:00 PM-13 °FPartly sunny.20 mph69%29.69 "Hg15 mi
3:00 PM-11 °FLight snow. Partly sunny.23 mph76%29.68 "Hg15 mi
2:00 PM-11 °FLight snow. Overcast.14 mph70%29.69 "Hg15 mi
1:00 PM-11 °FLight snow. Overcast.14 mph76%29.69 "Hg15 mi
12:00 PM-11 °FLight snow. Overcast.10 mph76%29.70 "Hg14 mi
11:00 AM-15 °FLight snow. Overcast.6 mph76%29.70 "Hg15 mi
10:00 AM-13 °FLight snow. Overcast.15 mph69%29.70 "Hg15 mi
9:00 AM-15 °FSnow flurries. Partly sunny.14 mph76%29.70 "Hg15 mi
8:00 AM-11 °FSnow flurries. Passing clouds.6 mph76%29.70 "Hg15 mi
7:00 AM-8 °FSnow flurries. Passing clouds.15 mph77%29.69 "Hg15 mi
6:00 AM-9 °FSnow flurries. Passing clouds.22 mph77%29.69 "Hg10 mi
5:00 AM-11 °FSnow flurries. Low level haze.23 mph76%29.69 "Hg6 mi
4:51 AM-11 °FSnow flurries. Low level haze.24 mph84%29.69 "Hg6 mi
4:00 AM-13 °FSnow flurries. Low level haze.24 mph76%29.67 "Hg3 mi
3:00 AM-15 °FLow level haze.22 mph76%29.67 "Hg15 mi
2:00 AM-13 °FPassing clouds.N/A76%29.67 "Hg15 mi
Weather by CustomWeather, © 2014

See weather overviewHow to use our weather pages